Tracking 17632 objects as of 1-May-2016
HD Live streaming from Space Station
objects crossing your sky now

COSMOS 2230

Track COSMOS 2230 now!
10-day predictions
COSMOS 2230 is classified as:


NORAD ID: 22307
Int'l Code: 1993-001A
Perigee: 994.1 km
Apogee: 994.1 km
Inclination: 82.9 °
Period: 104.8 minutes
Semi major axis: 7365 km
RCS: 1.5931 m2 (large)
Launch date: January 12, 1993
Source: Commonwealth of Independent States (former USSR) (CIS)
Launch site: PLESETSK MISSILE AND SPACE COMPLEX (PKMTR)
Your satellite tracking list
Your tracking list is empty





NASA's NSSDC Master Catalog

Two Line Element Set (TLE):
1 22307U 93001A   16122.17138125  .00000061  00000-0  48751-4 0  9993
2 22307  82.9389 142.9850 0025157  23.3579  45.1299 13.73521249159555
Source of the keplerian elements: AFSPC

N2YO: 385